Location: Devore Heights
(34.2372°N, 117.4156°W)
Time: 16:59:15
(UTC+00:00)

Tiros 1 despin weight - Pass Details

Date: 18 September 2024
Orbit: 572 x 614 km, 48.2° (Epoch: 12 October)

Event Time Altitude Azimuth Distance (km) Brightness Sun altitude
Exits shadow 10:43:59 15° 21° (NNE) 1,643 ? -34.6°
Drops below altitude 10° 10:45:09 10° 32° (NNE) 1,975 ? -34.4°
Sets 10:47:51 0° 47° (NE) 2,884 ? -33.9°
